This demonstration page uses our WeatherBlox Daily Observations layout. Learn more.

Left ArrowRight Arrow

44.8408, -93.29828

Hourly Observations for August 16, 2021

Temp ( °F °C ) Dew Point ( °F °C ) Humidity (%) Winds ( mph kmh ) Pressure ( in mb ) Visibility ( mi km ) Precip ( " mm )
12:53 am 00:53 Clear 69 20.6 55 12.8 61 61 S 8 13 30.04 1017 10 16 0.00 0.00
1:53 am 01:53 Clear 68 20 56 13.3 65 65 S 10 17 30.04 1017 10 16 0.00 0.00
2:53 am 02:53 Clear 67 19.4 55 12.8 66 66 S 10 17 30.03 1017 10 16 0.00 0.00
3:53 am 03:53 Clear 66 18.9 55 12.8 68 68 S 7 11 30.03 1017 10 16 0.00 0.00
4:53 am 04:53 Clear 63 17.2 55 12.8 76 76 SSE 6 9 30.02 1017 10 16 0.00 0.00
5:53 am 05:53 Mostly Clear 64 17.8 55 12.8 73 73 S 5 7 30.02 1017 10 16 0.00 0.00
6:53 am 06:53 Mostly Sunny 62 16.7 55 12.8 78 78 SE 6 9 30.03 1017 10 16 0.00 0.00
7:53 am 07:53 Mostly Sunny 65 18.3 56 13.3 73 73 SSE 6 9 30.04 1017 10 16 0.00 0.00
8:53 am 08:53 Mostly Sunny 69 20.6 58 14.4 68 68 SE 6 9 30.03 1017 10 16 0.00 0.00
9:53 am 09:53 Mostly Sunny 74 23.3 60 15.6 62 62 S 8 13 30.03 1017 10 16 0.00 0.00
10:53 am 10:53 Mostly Sunny 78 25.6 60 15.6 54 54 S 10 17 30.02 1017 10 16 0.00 0.00
11:53 am 11:53 Mostly Sunny 80 26.7 60 15.6 51 51 SW 12 19 30.01 1016 10 16 0.00 0.00
12:53 pm 12:53 Partly Cloudy 82 27.8 60 15.6 47 47 S 13 20 29.99 1016 10 16 0.00 0.00
1:53 pm 13:53 Partly Cloudy 82 27.8 60 15.6 47 47 SSE 13 20 29.98 1015 10 16 0.00 0.00
2:53 pm 14:53 Partly Cloudy 84 28.9 59 15 43 43 S 10 17 29.96 1015 10 16 0.00 0.00
3:53 pm 15:53 Partly Cloudy 84 28.9 60 15.6 44 44 S 15 24 29.94 1014 10 16 0.00 0.00
4:53 pm 16:53 Partly Cloudy 83 28.3 60 15.6 46 46 S 14 22 29.93 1014 10 16 0.00 0.00
5:53 pm 17:53 Mostly Sunny 83 28.3 60 15.6 46 46 S 13 20 29.92 1013 10 16 0.00 0.00
6:53 pm 18:53 Mostly Sunny 81 27.2 60 15.6 49 49 SSE 14 22 29.91 1013 10 16 0.00 0.00
7:53 pm 19:53 Partly Cloudy 80 26.7 59 15 49 49 S 15 24 29.91 1013 10 16 0.00 0.00
8:53 pm 20:53 Partly Cloudy 77 25 60 15.6 56 56 SSE 9 15 29.92 1013 10 16 0.00 0.00
9:53 pm 21:53 Clear 74 23.3 60 15.6 62 62 SSE 10 17 29.91 1013 10 16 0.00 0.00
10:53 pm 22:53 Clear 73 22.8 59 15 62 62 S 14 22 29.92 1013 10 16 0.00 0.00
11:53 pm 23:53 Clear 72 22.2 59 15 64 64 S 10 17 29.93 1013 10 16 0.00 0.00

Powered by AerisWeather